[[{"header":{"parameterUnit":"m.s-1","parameterCategory":1,"la1":30.2991,"la2":30.254,"lo1":-89.0895,"lo2":-89.0444,"dy":0.0017,"dx":0.0017,"nx":28,"ny":28,"refTime":"2025-12-24T03:00:00:Z","depth":0,"parameterNumber":2,"parameterNumberName":"U-component_of_WINDS"},"data":[0,0,0,0,0,0,0,0,0,0,0,0,0,0,0,0,0,0,0,0,0,0,0,0,0,0,0,0,0,0,0,0,0,0,0,0,0,0,0,0,0,0,0,0,0,0,0,0,0,0,0,0,0,0,0,0,0,0,-1.2561,-1.2561,0,-1.2528,-1.2528,-1.2528,-1.2466,-1.2464,-1.2463,-1.2462,-1.243,-1.243,-1.243,0,0,0,0,0,0,0,0,0,0,0,0,0,-1.2571,-1.2572,-1.2561,-1.2561,-1.256,-1.2528,-1.2528,-1.2527,-1.2466,-1.2464,-1.2463,-1.2462,-1.243,-1.243,-1.243,0,0,0,0,0,0,0,0,0,0,0,0,0,-1.2556,-1.2572,-1.2561,-1.2526,-1.2522,-1.2528,-1.2528,-1.2527,-1.2466,-1.2464,-1.2463,-1.2461,-1.243,-1.243,-1.243,-1.2469,0,0,-1.2432,-1.2432,0,0,0,0,0,0,0,0,-1.2557,-1.2555,-1.2531,-1.2528,-1.2524,-1.2499,-1.252,-1.2508,-1.2467,-1.2487,-1.2462,-1.246,-1.2454,-1.2453,-1.2451,-1.2468,-1.2466,-1.2432,-1.2432,-1.2432,-1.2432,0,0,0,0,0,0,0,-1.2558,-1.2557,-1.2548,-1.2531,-1.2527,-1.2512,-1.2508,-1.2517,-1.2482,-1.2485,-1.2481,-1.2478,-1.2452,-1.245,-1.2449,-1.2466,-1.2432,-1.2432,-1.2432,-1.2432,-1.2513,-1.2514,0,0,0,0,0,0,-1.2564,-1.2558,-1.2549,-1.2547,-1.2536,-1.2513,-1.2508,-1.2509,-1.2481,-1.2475,-1.2479,-1.2475,-1.2451,-1.2449,-1.2448,-1.2491,-1.2432,-1.2433,-1.2433,-1.2511,-1.2513,-1.2515,0,0,0,0,0,0,-1.2564,-1.2564,-1.255,-1.2551,-1.2548,-1.2515,-1.2516,-1.2509,-1.2507,-1.2477,-1.247,-1.2484,-1.2449,-1.2447,-1.2464,-1.2489,-1.2433,-1.2433,-1.2509,-1.2511,-1.2514,-1.2578,0,0,0,0,0,0,-1.2565,-1.2564,-1.2578,-1.2552,-1.2549,-1.2567,-1.2518,-1.251,-1.2508,-1.2502,-1.2479,-1.2474,-1.2448,-1.2464,-1.2465,-1.2488,-1.2433,-1.2506,-1.251,-1.2513,-1.2573,-1.2582,-1.259,0,0,0,0,0,-1.2566,-1.2598,-1.2579,-1.2579,-1.2565,-1.2569,-1.2567,-1.2535,-1.251,-1.2524,-1.2505,-1.2474,-1.2486,-1.2466,-1.2466,-1.2491,-1.2504,-1.2509,-1.2513,-1.2569,-1.258,-1.259,0,0,0,0,0,0,-1.2628,-1.2594,-1.2573,-1.2597,-1.2586,-1.2558,-1.2575,-1.2548,-1.2544,-1.2539,-1.2501,-1.2496,-1.2518,-1.2506,-1.2484,-1.2527,-1.2491,-1.2495,-1.2533,-1.2544,-1.2552,-1.2554,-1.2434,0,0,0,0,0,-1.2645,-1.265,-1.262,-1.2645,-1.264,-1.2609,-1.2609,-1.2586,-1.2573,-1.2568,-1.2549,-1.2538,-1.2539,-1.2541,-1.2541,-1.2571,-1.2565,-1.2588,-1.2597,-1.2604,-1.2608,-1.2623,-1.2633,-1.2529,-1.2529,-1.2529,0,0,-1.268,-1.2661,-1.2667,-1.2657,-1.2645,-1.2652,-1.2605,-1.2614,-1.2618,-1.2569,-1.2584,-1.257,-1.2555,-1.2579,-1.2589,-1.257,-1.2635,-1.2609,-1.2615,-1.2615,-1.2628,-1.2638,-1.2647,-1.2532,-1.2531,-1.2531,0,0,-1.2746,-1.2733,-1.2751,-1.2741,-1.2724,-1.2703,-1.2708,-1.2684,-1.2672,-1.2686,-1.265,-1.2655,-1.2658,-1.2648,-1.2644,-1.2707,-1.2679,-1.2708,-1.2752,-1.2767,-1.2775,-1.2782,-1.2804,-1.2812,-1.2713,-1.2713,-1.2713,0,-1.2791,-1.2798,-1.2765,-1.2775,-1.2772,-1.2728,-1.2747,-1.2739,-1.2723,-1.2722,-1.2701,-1.2704,-1.2691,-1.2711,-1.2727,-1.2725,-1.2729,-1.271,-1.2777,-1.2783,-1.279,-1.281,-1.2818,-1.2716,-1.2716,-1.2716,-1.2715,0,-1.2854,-1.286,-1.2878,-1.2863,-1.2862,-1.2877,-1.2846,-1.2848,-1.2826,-1.2807,-1.2822,-1.2805,-1.28,-1.2803,-1.2781,-1.2821,-1.281,-1.2784,-1.2746,-1.2804,-1.2822,-1.283,-1.2721,-1.272,-1.2719,-1.2718,0,0,-1.2958,-1.2925,-1.2932,-1.2924,-1.2903,-1.2907,-1.2921,-1.2915,-1.2918,-1.2909,-1.2919,-1.2923,-1.2898,-1.2893,-1.287,-1.2884,-1.2934,-1.2856,-1.2855,-1.287,-1.2976,-1.2995,-1.3005,-1.2916,-1.2917,-1.2918,-1.2977,0,-1.3019,-1.3039,-1.3009,-1.3036,-1.3041,-1.2999,-1.3011,-1.2999,-1.2982,-1.2984,-1.2966,-1.2969,-1.2937,-1.2933,-1.2945,-1.2926,-1.2955,-1.2921,-1.2924,-1.2925,-1.2928,-1.3014,-1.3035,-1.3091,-1.2984,-1.2985,-1.2986,0,-1.3092,-1.3086,-1.3113,-1.309,-1.3091,-1.3102,-1.3094,-1.3097,-1.3083,-1.307,-1.3065,-1.3037,-1.3049,-1.3014,-1.3029,-1.3007,-1.3006,-1.2997,-1.2999,-1.2997,-1.2958,-1.3014,-1.3108,-1.3116,-1.2997,-1.2996,-1.2995,0,-1.3164,-1.3163,-1.3179,-1.3174,-1.3147,-1.3156,-1.3145,-1.313,-1.3128,-1.3122,-1.3121,-1.3117,-1.3114,-1.3112,-1.3084,-1.3061,-1.3102,-1.3065,-1.3091,-1.3092,-1.3101,-1.3101,-1.3195,-1.3103,-1.3103,-1.3103,-1.3102,0,-1.3234,-1.3252,-1.3211,-1.322,-1.324,-1.3206,-1.3226,-1.3211,-1.3197,-1.3204,-1.3168,-1.3175,-1.3138,-1.3141,-1.312,-1.3135,-1.3135,-1.3124,-1.3118,-1.3127,-1.3128,-1.3125,-1.312,-1.3105,-1.3104,-1.3104,-1.3103,0,-1.3317,-1.329,-1.3305,-1.3279,-1.3272,-1.3288,-1.3265,-1.3273,-1.3254,-1.3263,-1.3263,-1.3233,-1.3235,-1.3207,-1.3203,-1.3189,-1.3214,-1.3201,-1.3218,-1.3214,-1.3242,-1.3239,-1.3337,-1.3348,-1.325,-1.3251,-1.3251,0,-1.3363,-1.3376,-1.3351,-1.3353,-1.3344,-1.3347,-1.3345,-1.3313,-1.3313,-1.3298,-1.3308,-1.3306,-1.3303,-1.3308,-1.3286,-1.3283,-1.327,-1.3304,-1.3269,-1.3277,-1.3269,-1.3268,-1.3269,-1.3311,-1.3313,-1.3314,-1.3314,0,-1.3448,-1.3434,-1.3433,-1.3427,-1.3426,-1.342,-1.3412,-1.3415,-1.338,-1.3381,-1.3382,-1.338,-1.3376,-1.3375,-1.3368,-1.3357,-1.333,-1.3326,-1.3332,-1.334,-1.3349,-1.3344,-1.3237,-1.3323,-1.3323,-1.3322,-1.3321,-1.3321,-1.3513,-1.3523,-1.3506,-1.3506,-1.3497,-1.349,-1.3496,-1.3478,-1.3478,-1.3472,-1.3453,-1.3457,-1.3443,-1.343,-1.3422,-1.3425,-1.3408,-1.3416,-1.3418,-1.3421,-1.3426,-1.335,-1.3424,-1.3423,-1.3423,-1.3423,-1.3423,0,-1.3595,-1.3583,-1.3583,-1.3572,-1.3572,-1.3547,-1.3536,-1.3538,-1.3542,-1.3531,-1.3529,-1.353,-1.3529,-1.3507,-1.3504,-1.351,-1.3497,-1.351,-1.3509,-1.3507,-1.3441,-1.3436,-1.352,-1.352,-1.352,-1.352,-1.352,-1.352,-1.3637,-1.3652,-1.3636,-1.3645,-1.3633,-1.3636,-1.3632,-1.3626,-1.3617,-1.362,-1.3618,-1.3604,-1.3589,-1.3584,-1.3582,-1.3575,-1.3575,-1.3592,-1.3581,-1.3521,-1.3511,-1.3502,-1.3497,-1.3592,-1.3593,-1.3646,-1.3647,-1.3647]},{"header":{"parameterUnit":"m.s-1","parameterCategory":1,"la1":30.2991,"la2":30.254,"lo1":-89.0895,"lo2":-89.0444,"dy":0.0017,"dx":0.0017,"nx":28,"ny":28,"refTime":"2025-12-24T03:00:00:Z","depth":0,"parameterNumber":3,"parameterNumberName":"V-component_of_WINDS"},"data":[0,0,0,0,0,0,0,0,0,0,0,0,0,0,0,0,0,0,0,0,0,0,0,0,0,0,0,0,0,0,0,0,0,0,0,0,0,0,0,0,0,0,0,0,0,0,0,0,0,0,0,0,0,0,0,0,0,0,0.2427,0.2428,0,0.2519,0.252,0.2521,0.2577,0.2578,0.2578,0.2578,0.2673,0.2675,0.2677,0,0,0,0,0,0,0,0,0,0,0,0,0,0.2304,0.2306,0.2427,0.2428,0.243,0.2519,0.252,0.2521,0.2577,0.2578,0.2578,0.2578,0.2672,0.2674,0.2677,0,0,0,0,0,0,0,0,0,0,0,0,0,0.2372,0.2306,0.2427,0.2468,0.2473,0.2519,0.252,0.2522,0.2577,0.2578,0.2578,0.2579,0.2671,0.2674,0.2678,0.269,0,0,0.2688,0.2689,0,0,0,0,0,0,0,0,0.2368,0.2377,0.2461,0.2466,0.2471,0.2537,0.2511,0.2578,0.2577,0.2538,0.2578,0.2579,0.2627,0.2634,0.265,0.2694,0.2698,0.2688,0.269,0.2692,0.2693,0,0,0,0,0,0,0,0.2364,0.2373,0.2464,0.2462,0.2468,0.2483,0.2493,0.2524,0.2579,0.2541,0.2545,0.2555,0.263,0.2647,0.2653,0.27,0.2688,0.2691,0.2693,0.2694,0.2761,0.2761,0,0,0,0,0,0,0.2352,0.2369,0.2461,0.2466,0.242,0.2485,0.2496,0.2515,0.2579,0.2589,0.2555,0.2558,0.2641,0.2649,0.2657,0.2677,0.2692,0.2695,0.2697,0.2761,0.2761,0.2761,0,0,0,0,0,0,0.2349,0.236,0.2457,0.2419,0.2432,0.2487,0.2508,0.2517,0.2534,0.2589,0.2599,0.2562,0.2642,0.2652,0.2682,0.2681,0.2696,0.2699,0.2761,0.2761,0.2761,0.2716,0,0,0,0,0,0,0.2345,0.2358,0.2363,0.2419,0.2434,0.248,0.2507,0.2519,0.254,0.2544,0.2599,0.2608,0.2643,0.2676,0.2685,0.2686,0.2702,0.2762,0.2761,0.2761,0.2718,0.2714,0.2711,0,0,0,0,0,0.2341,0.2346,0.2362,0.2373,0.2441,0.2479,0.2488,0.2528,0.2539,0.2545,0.2581,0.2606,0.268,0.2679,0.2689,0.2691,0.2762,0.2761,0.2761,0.2719,0.2715,0.2711,0,0,0,0,0,0,0.2288,0.2354,0.2373,0.2396,0.2432,0.2489,0.2497,0.2522,0.2555,0.2558,0.2606,0.2618,0.2643,0.267,0.2668,0.2708,0.2724,0.2725,0.2689,0.2685,0.2682,0.2675,0.2705,0,0,0,0,0,0.2279,0.2304,0.2361,0.2376,0.2393,0.2442,0.246,0.2488,0.2527,0.2542,0.258,0.2617,0.2649,0.2668,0.27,0.2722,0.2736,0.2729,0.2725,0.2722,0.2723,0.2739,0.2737,0.2759,0.2759,0.2759,0,0,0.2261,0.23,0.2313,0.2366,0.2397,0.2424,0.2454,0.248,0.25,0.2546,0.2577,0.2606,0.2651,0.2677,0.2691,0.2701,0.272,0.2722,0.2719,0.2721,0.2738,0.2736,0.2734,0.2758,0.2758,0.2758,0,0,0.2241,0.2273,0.229,0.2321,0.2367,0.24,0.2404,0.2458,0.2479,0.2511,0.2547,0.2572,0.2625,0.2656,0.2679,0.2674,0.27,0.2683,0.2666,0.2681,0.2679,0.2678,0.2678,0.2677,0.2684,0.2684,0.2684,0,0.2213,0.2253,0.2295,0.232,0.2344,0.2387,0.2406,0.2434,0.2488,0.2504,0.2514,0.2583,0.2616,0.2652,0.2651,0.2667,0.2675,0.2677,0.2676,0.2675,0.2675,0.2675,0.2675,0.2682,0.2682,0.2682,0.2682,0,0.2217,0.2244,0.2253,0.2305,0.2329,0.2351,0.2398,0.2418,0.2444,0.2476,0.2509,0.2551,0.2593,0.2604,0.2629,0.2644,0.2649,0.2667,0.2684,0.267,0.2671,0.2671,0.2679,0.2679,0.268,0.2681,0,0,0.2165,0.2242,0.2244,0.227,0.2326,0.2348,0.2373,0.2415,0.2432,0.2468,0.2491,0.2536,0.2554,0.258,0.261,0.2623,0.2619,0.264,0.2642,0.2636,0.264,0.2626,0.2626,0.2636,0.2636,0.2637,0.2637,0,0.2154,0.22,0.224,0.2271,0.2299,0.2341,0.2363,0.24,0.2432,0.246,0.2495,0.2527,0.2547,0.2564,0.2579,0.2616,0.262,0.2617,0.2659,0.266,0.2647,0.2626,0.2612,0.2609,0.2637,0.2637,0.2637,0,0.2147,0.2183,0.2217,0.2273,0.2286,0.2304,0.2347,0.2374,0.2418,0.244,0.247,0.2502,0.2531,0.2546,0.2588,0.2585,0.2605,0.2626,0.2627,0.2633,0.2648,0.2632,0.2609,0.2609,0.2638,0.2638,0.2638,0,0.2108,0.2165,0.2193,0.2214,0.2279,0.2291,0.2319,0.2363,0.2387,0.2425,0.2441,0.2481,0.2503,0.2535,0.2577,0.2584,0.2616,0.2633,0.2636,0.2635,0.2641,0.264,0.2621,0.2652,0.2652,0.2652,0.2652,0,0.2092,0.2112,0.2177,0.2194,0.2218,0.2265,0.2288,0.232,0.2359,0.2385,0.2424,0.2448,0.2502,0.2532,0.2566,0.2597,0.2606,0.2626,0.2635,0.2623,0.262,0.2637,0.2638,0.2652,0.2652,0.2652,0.2652,0,0.2052,0.2096,0.213,0.219,0.2205,0.222,0.2272,0.2291,0.2326,0.2358,0.2368,0.2422,0.246,0.2506,0.2558,0.2581,0.2609,0.2621,0.2594,0.2599,0.26,0.2599,0.2592,0.2594,0.2622,0.2621,0.2621,0,0.2039,0.2056,0.2117,0.2137,0.2164,0.2196,0.222,0.2268,0.2292,0.2345,0.2358,0.2399,0.2435,0.2494,0.2538,0.2579,0.2594,0.2588,0.26,0.2588,0.2595,0.2594,0.2597,0.2585,0.2584,0.2584,0.2584,0,0.2013,0.2035,0.2068,0.211,0.2138,0.2174,0.2211,0.2225,0.228,0.2306,0.2345,0.2373,0.2427,0.2468,0.2515,0.2545,0.2574,0.258,0.2583,0.2571,0.2555,0.2565,0.2586,0.2579,0.258,0.258,0.258,0.2581,0.1987,0.2005,0.2051,0.2088,0.2121,0.2155,0.2177,0.2215,0.2249,0.2297,0.2323,0.2363,0.2409,0.2475,0.2504,0.2537,0.2547,0.2551,0.2552,0.2552,0.2549,0.2549,0.2545,0.2545,0.2546,0.2546,0.2546,0,0.1964,0.1997,0.203,0.2081,0.2111,0.2136,0.2179,0.2202,0.2236,0.2277,0.2311,0.2358,0.2398,0.2447,0.2491,0.2507,0.2522,0.2517,0.2517,0.2524,0.2537,0.2531,0.2505,0.2505,0.2505,0.2505,0.2505,0.2505,0.1955,0.1987,0.2014,0.2063,0.2096,0.2135,0.2158,0.219,0.2223,0.2273,0.2307,0.2339,0.2383,0.2431,0.247,0.2484,0.2499,0.249,0.2508,0.2519,0.2523,0.2526,0.252,0.2493,0.2493,0.2492,0.2492,0.2492]}]]